Regional Weather Roundup
Issued by NWS Bismarck, ND

Home | Current Version | Previous Version | Text Only | Print | Product List | Glossary On
Versions: 1 2 3 4 5 6 7 8 9 10 11 12 13 14 15 16 17 18 19 20 21 22 23 24 25 26 27 28 29 30 31 32 33 34 35 36 37 38 39 40 41 42 43 44 45 46 47 48 49 50
000
ASUS43 KBIS 061620
RWRBIS

NWR BROADCAST TEXT
NATIONAL WEATHER SERVICE BISMARCK ND
1000 AM CST FRI MAR 06 2015

NOTE: "FAIR" INDICATES FEW OR NO CLOUDS BELOW 12,000 FEET WITH NO
SIGNIFICANT WEATHER AND/OR OBSTRUCTIONS TO VISIBILITY.


CITY           SKY/WX    TMP DP  RH WIND       PRES   REMARKS
WILLISTON      CLOUDY    26  19  74 S7        30.05F WCI  18
MINOT          PTSUNNY   24  15  68 SW13      30.06R WCI  12
MINOT AFB      PTSUNNY   23  18  81 SW9       30.05R WCI  13
BISMARCK       MOSUNNY   26  17  68 W6        30.13S WCI  19
DICKINSON      CLOUDY    34  19  54 SW8       30.05S
GARRISON         N/A     23  16  74 W6        30.09R WCI  16
HETTINGER ARPT CLOUDY    36  18  48 W6        30.09S
JAMESTOWN      SUNNY     26  16  65 NW9       30.08R WCI  17
BEACH          CLOUDY    36  19  51 SW5       30.07S
CARRINGTON     FAIR      25  19  80 MISG      30.09S
CROSBY         FAIR      25  19  80 S13       30.02S WCI  13
HARVEY         FAIR      21  16  79 W7        30.09R WCI  13
HAZEN          FAIR      27  19  74 SW7       30.12R WCI  19
LINTON         FAIR      28  19  69 NW8       30.13R
MANDAN         FAIR      28  18  64 W7        30.12R
OAKES            N/A     25  18  74 W12       30.11R WCI  14
RUGBY          FAIR      18  14  86 W8        30.06S WCI   7
TIOGA          FAIR      27  21  80 SW9       30.05F WCI  17
WATFORD CITY   PTSUNNY   27  21  80 CALM      30.04F
$$

CITY           SKY/WX    TMP DP  RH WIND       PRES   REMARKS
GRAND FORKS    MOSUNNY   25  14  63 NW9       30.07R WCI  15
GRAND FORKS AF SUNNY     26  12  56 NW8       30.07R WCI  17
DEVILS LAKE    SUNNY     23  16  74 W8        30.06S WCI  14
FARGO          SUNNY     26  14  60 NW12      30.09S WCI  16
CANDO          FAIR      19  14  79 W10       30.05S WCI   8
CAVALIER       FAIR      25  14  63 W9        30.05R WCI  15
GWINNER        SUNNY     30  18  59 NW13      30.11S
ROLLA          FAIR      25  14  63 SW9       30.01S WCI  15
WALHALLA         N/A     23  12  63 W3        30.04S
$$

CITY           SKY/WX    TMP DP  RH WIND       PRES   REMARKS
ABERDEEN       SUNNY     29  17  61 NW12      30.14R WCI  19
MOBRIDGE       MOSUNNY   31  18  58 W5        30.10R
BUFFALO          N/A     42  21  43 W12       30.03R
RAPID CITY     PTSUNNY   47  20  34 NW8       30.14R
GLASGOW        SUNNY     36  21  54 W9        30.04R
SIDNEY         MOSUNNY   30  21  69 S8        30.08F
WOLF POINT     PTSUNNY   33  23  66 SW6       30.04S
GLENDIVE       CLOUDY    39  21  48 SW10      30.07S
MILES CITY     SUNNY     44  19  36 MISG      30.10S
BAKER          PTSUNNY   40  20  44 W15       30.09R
$$

CITY           SKY/WX    TMP DP  RH WIND       PRES   REMARKS
BILLINGS       MOSUNNY   45  16  31 W16       30.18R
GREAT FALLS    PTSUNNY   47  18  31 SW23G31   30.14R
REGINA         CLOUDY    21  18  86 S9        29.93F WCI  11
ESTEVAN        CLOUDY    25  18  74 SW13      30.01F WCI  13
$$




USA.gov is the U.S. government's official web portal to all federal, state and local government web resources and services.